User: anonymous   Login
Location: Marne
(34.0056°N, 117.9064°W)
Time: 21:13:45
(UTC+00:00)
Language:

Cosmos 1626 - Orbit

View from above orbital plane
View from above orbital plane
View from above satellite
View from above satellite

Ground track
Ground track

The orbit data is extracted from the following two-line orbital elements,

1 15494U 85009A   20088.18896183 +.00000662 +00000-0 +25910-4 0  9992
2 15494 082.4782 312.8155 0003863 093.2381 266.9298 15.24047520923003
Epoch (UTC): 28 March 2020 04:32:06
Eccentricity: 0.0003863
inclination: 82.4782°
perigee height: 491 km
apogee height: 496 km
right ascension of ascending node: 312.8155°
argument of perigee: 93.2381°
revolutions per day: 15.24047520
mean anomaly at epoch: 266.9298°
orbit number at epoch: 92300

The dashed part of the orbit path shows where the satellite is in the earth's shadow,  

DLR